#timestamp,LO_Frequency,Hit,StdDev 
1599300695.3,286046958.3,P
1599300715.1,286046961.2,P
1599300735.9,286046959.0,P
1599300755.7,286046956.6,Y
1599300775.6,286046997.8,P
1599300795.4,286046995.3,N
1599300815.2,286046996.3,N
1599300835.1,286046995.5,N
1599300836.0,286046995.5,N
1599300855.8,286046996.2,N
1599300875.7,286046996.1,N
1599300895.5,286046993.4,N
1599300915.3,286046993.5,N
1599300935.2,286046994.6,N
1599300955.0,286046994.3,N
1599300955.9,286046994.3,N
1599300975.7,286046992.1,N
1599300995.6,286046993.1,N
1599301015.4,286046993.2,N
1599301035.3,286046991.4,N
1599301055.1,286046991.2,N
1599301056.0,286046991.2,N
1599301075.8,286046989.0,N
1599301095.7,286046989.0,N
1599301115.5,286046987.1,N
1599301135.3,286046987.4,N
1599301155.2,286046987.9,N
1599301175.0,286046987.9,N
1599301175.9,286046987.9,N
1599301195.8,286046988.4,N
1599301215.6,286046985.6,N
1599301235.4,286046986.0,N
1599301255.3,286046986.5,N
1599301275.1,286046986.7,N
1599301295.8,286046986.3,Y
1599301315.7,286046992.2,P
1599301335.5,286046992.9,P
1599301355.4,286046990.6,P
1599301375.2,286046991.4,Y
1599301395.0,286046999.3,P
1599301395.9,286046999.3,N
1599301415.8,286046996.5,N
1599301435.6,286046997.0,N
1599301455.5,286046997.8,N
1599301475.3,286046995.4,N
1599301495.1,286046995.8,N
1599301515.9,286046995.6,N
1599301535.7,286046996.3,N
1599301555.5,286046993.5,Y
1599301575.4,286046996.8,P
1599301595.2,286046994.9,P
1599301615.1,286046995.5,P
1599301616.0,286046995.5,Y
1599301635.8,286047000.1,P
1599301655.6,286047002.2,N
1599301675.5,286047000.1,N
1599301695.3,286047000.5,N
1599301715.1,286047000.9,N
1599301735.9,286046998.2,N
1599301755.7,286046999.4,N
1599301775.6,286046999.1,N
1599301795.4,286046996.5,N
1599301815.2,286046999.5,N
1599301835.1,286046996.5,N
1599301836.0,286046996.5,N
1599301855.8,286046997.3,N
1599301875.6,286046997.6,N
1599301895.5,286046995.4,N
1599301915.3,286046996.4,N
1599301935.2,286046996.4,N
1599301955.9,286046994.1,Y
1599301975.7,286046996.0,P
1599301995.6,286046994.0,P
1599302015.4,286046994.2,P
1599302035.3,286046994.2,Y
1599302055.1,286046999.6,P
1599302056.0,286046999.6,N
1599302075.8,286046996.6,N
1599302095.7,286046996.8,N
1599302115.5,286046994.9,Y
1599302135.3,286046999.2,P
1599302155.2,286046999.2,N
1599302175.0,286046996.7,P
1599302175.9,286046996.7,Y
1599302195.8,286046998.6,P
1599302215.6,286046998.8,P
1599302235.4,286046998.8,P
1599302255.3,286046996.5,Y
1599302275.1,286046998.7,P
1599302295.9,286046999.6,P
1599302315.7,286046999.5,N
1599302335.5,286046997.9,Y
1599302355.4,286046996.7,P
1599302375.2,286046997.6,N
1599302395.0,286046998.0,N
1599302395.9,286046998.0,N
1599302415.8,286046995.2,Y
1599302435.6,286046996.8,P
1599302455.5,286046999.6,N
1599302475.3,286046996.6,N
1599302495.1,286046997.0,N
1599302515.9,286046996.7,Y
1599302535.7,286046999.0,P
1599302555.6,286046998.8,N
1599302575.4,286046999.2,N
1599302595.2,286046998.9,N
1599302615.1,286046997.3,Y
1599302616.0,286046997.3,P
1599302635.8,286046999.3,N
1599302655.6,286046999.3,N
1599302675.5,286046996.7,Y
1599302695.3,286046998.9,P
1599302715.2,286046999.3,P
1599302735.9,286046997.0,P
1599302755.7,286046996.9,Y
1599302775.6,286046998.1,P
1599302795.4,286046999.0,P
1599302815.2,286046996.9,P
1599302835.1,286046997.7,Y
1599302836.0,286046997.7,P
1599302855.8,286046998.7,P
1599302875.7,286046996.5,P
1599302895.5,286046996.7,Y
1599302915.3,286047000.6,P
1599302935.2,286047000.7,N
1599302955.0,286046998.7,N
1599302955.9,286046998.7,N
1599302975.8,286046998.4,N
1599302995.6,286046998.5,N
1599303015.4,286046998.8,N
1599303035.3,286046996.6,Y
1599303055.1,286046999.3,P
1599303075.8,286046996.8,P
1599303095.7,286046998.0,N
1599303115.5,286046995.1,Y
1599303135.4,286046999.1,P
1599303155.2,286046999.6,N
1599303175.0,286046996.9,P
1599303175.9,286046996.9,Y
1599303195.8,286046998.6,P
1599303215.6,286046998.7,P
1599303235.5,286046997.1,P
1599303255.3,286046996.7,Y
1599303275.1,286046998.4,P
1599303295.9,286046999.2,P
1599303315.7,286046997.3,P
1599303335.6,286046996.7,Y
1599303355.4,286046999.4,P
1599303375.2,286046996.6,P
1599303395.1,286046997.4,N
1599303396